,,,PA_Meas_PMT16A,,PR_Meas_QMR101_102,,RH_Meas_QMH101,,SR_Meas_QMS101,,TA_Meas_QMH101,,GenWind,,GenWind,
date,time,status,PA,status,PR,status,RH,status,SR,status,TA,status,DirAvg,status,SpdAvg,
2013-01-27, 00:00:05,VALID,1011.6,VALID,0,VALID,103.352,VALID,0,VALID,24.5125,VALID,280,VALID,0.000390625,
2013-01-27, 00:01:05,VALID,1011.59,VALID,0,VALID,103.237,VALID,0,VALID,24.4717,VALID,280,VALID,0.0714844,
2013-01-27, 00:02:05,VALID,1011.63,VALID,0,VALID,103.23,VALID,0,VALID,24.493,VALID,279,VALID,0.154297,
2013-01-27, 00:03:05,VALID,1011.6,VALID,0,VALID,103.215,VALID,0,VALID,24.493,VALID,279,VALID,0,
2013-01-27, 00:04:05,VALID,1011.6,VALID,0,VALID,103.298,VALID,0,VALID,24.4735,VALID,301,VALID,0.482422,
2013-01-27, 00:05:05,VALID,1011.6,VALID,0,VALID,103.314,VALID,0,VALID,24.4735,VALID,303,VALID,0.591797,
2013-01-27, 00:06:05,VALID,1011.61,VALID,0,VALID,103.298,VALID,0,VALID,24.4735,VALID,303,VALID,0.147656,
2013-01-27, 00:07:05,VALID,1011.59,VALID,0,VALID,103.298,VALID,0,VALID,24.4735,VALID,315,VALID,0.784766,
2013-01-27, 00:08:05,VALID,1011.54,VALID,0,VALID,103.367,VALID,0,VALID,24.4735,VALID,319,VALID,0.600781,
2013-01-27, 00:09:05,VALID,1011.56,VALID,0,VALID,103.222,VALID,0,VALID,24.493,VALID,315,VALID,0.66875,
2013-01-27, 00:10:05,VALID,1011.55,VALID,0,VALID,103.093,VALID,0,VALID,24.493,VALID,353,VALID,0.419141,
2013-01-27, 00:11:05,VALID,1011.52,VALID,0,VALID,103.009,VALID,0,VALID,24.5125,VALID,348,VALID,0.482812,
2013-01-27, 00:12:05,VALID,1011.56,VALID,0,VALID,102.925,VALID,0,VALID,24.5125,VALID,348,VALID,0.457422,
2013-01-27, 00:13:05,VALID,1011.56,VALID,0,VALID,102.879,VALID,0,VALID,24.5125,VALID,349,VALID,0.517578,
2013-01-27, 00:14:05,VALID,1011.57,VALID,0,VALID,102.879,VALID,0,VALID,24.5125,VALID,349,VALID,0.478125,
2013-01-27, 00:15:05,VALID,1011.58,VALID,0,VALID,102.879,VALID,0,VALID,24.493,VALID,349,VALID,0.401172,
2013-01-27, 00:16:05,VALID,1011.58,VALID,0,VALID,102.932,VALID,0,VALID,24.4735,VALID,349,VALID,0.315625,
2013-01-27, 00:17:04,VALID,1011.56,VALID,0,VALID,102.978,VALID,0,VALID,24.4735,VALID,349,VALID,0.305469,
2013-01-27, 00:18:04,VALID,1011.58,VALID,0,VALID,103.032,VALID,0,VALID,24.4345,VALID,349,VALID,0.457812,
2013-01-27, 00:19:04,VALID,1011.61,VALID,0,VALID,103.161,VALID,0,VALID,24.454,VALID,349,VALID,0.282422,
2013-01-27, 00:20:04,VALID,1011.57,VALID,0,VALID,103.146,VALID,0,VALID,24.4345,VALID,349,VALID,0.132422,
2013-01-27, 00:21:04,VALID,1011.59,VALID,0,VALID,103.199,VALID,0,VALID,24.415,VALID,349,VALID,0.539063,
2013-01-27, 00:22:04,VALID,1011.6,VALID,0,VALID,103.314,VALID,0,VALID,24.415,VALID,347,VALID,0.4875,
2013-01-27, 00:23:04,VALID,1011.61,VALID,0,VALID,103.375,VALID,0,VALID,24.415,VALID,347,VALID,0.480859,
2013-01-27, 00:24:04,VALID,1011.61,VALID,0,VALID,103.344,VALID,0,VALID,24.415,VALID,324,VALID,0.693359,
2013-01-27, 00:25:04,VALID,1011.6,VALID,0,VALID,103.359,VALID,0,VALID,24.415,VALID,303,VALID,0.219141,
2013-01-27, 00:26:04,VALID,1011.61,VALID,0,VALID,103.283,VALID,0,VALID,24.3956,VALID,303,VALID,0.238672,
2013-01-27, 00:27:04,VALID,1011.59,VALID,0,VALID,103.321,VALID,0,VALID,24.3956,VALID,303,VALID,0.261719,
2013-01-27, 00:28:04,VALID,1011.6,VALID,0,VALID,103.344,VALID,0,VALID,24.3956,VALID,303,VALID,0.189844,
2013-01-27, 00:29:04,VALID,1011.64,VALID,0,VALID,103.359,VALID,0,VALID,24.3956,VALID,301,VALID,0.294922,
2013-01-27, 00:30:04,VALID,1011.6,VALID,0,VALID,103.291,VALID,0,VALID,24.3956,VALID,302,VALID,0.183203,
2013-01-27, 00:31:04,VALID,1011.63,VALID,0,VALID,103.268,VALID,0,VALID,24.415,VALID,302,VALID,0.275781,
2013-01-27, 00:32:04,VALID,1011.61,VALID,0,VALID,103.276,VALID,0,VALID,24.3956,VALID,303,VALID,0,
2013-01-27, 00:33:04,VALID,1011.61,VALID,0,VALID,103.359,VALID,0,VALID,24.3761,VALID,303,VALID,0.541797,
2013-01-27, 00:34:04,VALID,1011.64,VALID,0,VALID,103.413,VALID,0,VALID,24.3566,VALID,305,VALID,0.369141,
2013-01-27, 00:35:04,VALID,1011.64,VALID,0,VALID,103.512,VALID,0,VALID,24.3566,VALID,316,VALID,0.499219,
2013-01-27, 00:36:04,VALID,1011.62,VALID,0,VALID,103.451,VALID,0,VALID,24.3547,VALID,316,VALID,0.304688,
2013-01-27, 00:37:04,VALID,1011.62,VALID,0,VALID,103.413,VALID,0,VALID,24.3371,VALID,320,VALID,0.45,
2013-01-27, 00:38:04,VALID,1011.61,VALID,0,VALID,103.52,VALID,0,VALID,24.3761,VALID,320,VALID,0.391797,
2013-01-27, 00:39:04,VALID,1011.59,VALID,0,VALID,103.512,VALID,0,VALID,24.3761,VALID,322,VALID,0.389062,
2013-01-27, 00:40:04,VALID,1011.61,VALID,0,VALID,103.451,VALID,0,VALID,24.3566,VALID,322,VALID,0.3375,
2013-01-27, 00:41:04,VALID,1011.61,VALID,0,VALID,103.481,VALID,0,VALID,24.3761,VALID,322,VALID,0.114453,
2013-01-27, 00:42:04,VALID,1011.58,VALID,0,VALID,103.428,VALID,0,VALID,24.3761,VALID,321,VALID,0.549219,
2013-01-27, 00:43:04,VALID,1011.6,VALID,0,VALID,103.352,VALID,0,VALID,24.3761,VALID,323,VALID,0.275391,
2013-01-27, 00:44:04,VALID,1011.59,VALID,0,VALID,103.306,VALID,0,VALID,24.3761,VALID,322,VALID,0.0597656,
2013-01-27, 00:45:04,VALID,1011.61,VALID,0,VALID,103.329,VALID,0,VALID,24.3779,VALID,322,VALID,0.0667969,
2013-01-27, 00:46:04,VALID,1011.6,VALID,0,VALID,103.367,VALID,0,VALID,24.3761,VALID,318,VALID,0.103125,
2013-01-27, 00:47:04,VALID,1011.62,VALID,0,VALID,103.321,VALID,0,VALID,24.3761,VALID,315,VALID,0.302734,
2013-01-27, 00:48:04,VALID,1011.62,VALID,0,VALID,103.39,VALID,0,VALID,24.3761,VALID,315,VALID,0.248437,
2013-01-27, 00:49:04,VALID,1011.61,VALID,0,VALID,103.26,VALID,0,VALID,24.3547,VALID,315,VALID,0.0433594,
2013-01-27, 00:50:04,VALID,1011.62,VALID,0,VALID,103.306,VALID,0,VALID,24.3761,VALID,315,VALID,0.00117188,
2013-01-27, 00:51:04,VALID,1011.57,VALID,0,VALID,103.245,VALID,0,VALID,24.3352,VALID,315,VALID,0,
2013-01-27, 00:52:04,VALID,1011.57,VALID,0,VALID,103.321,VALID,0,VALID,24.3371,VALID,315,VALID,0,
2013-01-27, 00:53:04,VALID,1011.54,VALID,0,VALID,103.344,VALID,0,VALID,24.3176,VALID,315,VALID,0,
2013-01-27, 00:54:04,VALID,1011.53,VALID,0,VALID,103.405,VALID,0,VALID,24.2768,VALID,315,VALID,0,
2013-01-27, 00:55:04,VALID,1011.56,VALID,0,VALID,103.512,VALID,0,VALID,24.3,VALID,315,VALID,0.192969,
2013-01-27, 00:56:04,VALID,1011.54,VALID,0,VALID,103.542,VALID,0,VALID,24.2591,VALID,315,VALID,0.0265625,
2013-01-27, 00:57:04,VALID,1011.52,VALID,0,VALID,103.542,VALID,0,VALID,24.2591,VALID,315,VALID,0.283984,
2013-01-27, 00:58:04,VALID,1011.53,VALID,0,VALID,103.68,VALID,0,VALID,24.2396,VALID,315,VALID,0.384766,
2013-01-27, 00:59:04,VALID,1011.5,VALID,0,VALID,103.726,VALID,0,VALID,24.2202,VALID,315,VALID,0.159375,
2013-01-27, 01:00:04,VALID,1011.49,VALID,0,VALID,103.733,VALID,0,VALID,24.2007,VALID,315,VALID,0.245703,
2013-01-27, 01:01:04,VALID,1011.51,VALID,0,VALID,103.771,VALID,0,VALID,24.1812,VALID,315,VALID,0.178906,
2013-01-27, 01:02:04,VALID,1011.45,VALID,0,VALID,103.97,VALID,0,VALID,24.1617,VALID,315,VALID,0.189063,
2013-01-27, 01:03:04,VALID,1011.42,VALID,0,VALID,104,VALID,0,VALID,24.1227,VALID,315,VALID,0,
2013-01-27, 01:04:04,VALID,1011.44,VALID,0,VALID,104,VALID,0,VALID,24.0819,VALID,315,VALID,0,
2013-01-27, 01:05:04,VALID,1011.4,VALID,0,VALID,104,VALID,0,VALID,24.1032,VALID,315,VALID,0.196484,
2013-01-27, 01:06:04,VALID,1011.39,VALID,0,VALID,104,VALID,0,VALID,24.0837,VALID,315,VALID,0.0734375,
2013-01-27, 01:07:04,VALID,1011.38,VALID,0,VALID,104,VALID,0,VALID,24.0643,VALID,315,VALID,0.127734,
2013-01-27, 01:08:04,VALID,1011.37,VALID,0,VALID,104,VALID,0,VALID,24.0448,VALID,315,VALID,0.240234,
2013-01-27, 01:09:04,VALID,1011.35,VALID,0,VALID,104,VALID,0,VALID,24.0448,VALID,315,VALID,0.402344,
2013-01-27, 01:10:04,VALID,1011.32,VALID,0,VALID,104,VALID,0,VALID,24.0058,VALID,315,VALID,0.408594,
2013-01-27, 01:11:04,VALID,1011.34,VALID,0,VALID,104,VALID,0,VALID,23.9863,VALID,315,VALID,0.335547,
2013-01-27, 01:12:04,VALID,1011.3,VALID,0,VALID,104,VALID,0,VALID,23.9473,VALID,315,VALID,0.390234,
2013-01-27, 01:13:04,VALID,1011.29,VALID,0,VALID,104,VALID,0,VALID,23.9084,VALID,315,VALID,0.289453,
2013-01-27, 01:14:04,VALID,1011.3,VALID,0,VALID,104,VALID,0,VALID,23.8889,VALID,315,VALID,0.140234,
2013-01-27, 01:15:04,VALID,1011.3,VALID,0,VALID,104,VALID,0,VALID,23.8694,VALID,315,VALID,0.231641,
2013-01-27, 01:16:04,VALID,1011.29,VALID,0,VALID,104,VALID,0,VALID,23.8304,VALID,315,VALID,0.178125,
2013-01-27, 01:17:04,VALID,1011.27,VALID,0,VALID,104,VALID,0,VALID,23.7914,VALID,315,VALID,0.0945313,
2013-01-27, 01:18:04,VALID,1011.26,VALID,0,VALID,104,VALID,0,VALID,23.7932,VALID,315,VALID,0,
2013-01-27, 01:19:04,VALID,1011.27,VALID,0,VALID,104,VALID,0,VALID,23.772,VALID,314,VALID,0,
2013-01-27, 01:20:04,VALID,1011.25,VALID,0,VALID,104,VALID,0,VALID,23.7525,VALID,315,VALID,0,
2013-01-27, 01:21:04,VALID,1011.23,VALID,0,VALID,104,VALID,0,VALID,23.7738,VALID,314,VALID,0,
2013-01-27, 01:22:04,VALID,1011.22,VALID,0,VALID,104,VALID,0,VALID,23.733,VALID,314,VALID,0.123828,
2013-01-27, 01:23:04,VALID,1011.2,VALID,0,VALID,104,VALID,0,VALID,23.7153,VALID,314,VALID,0.103906,
2013-01-27, 01:24:04,VALID,1011.19,VALID,0,VALID,104,VALID,0,VALID,23.694,VALID,314,VALID,0,
2013-01-27, 01:25:04,VALID,1011.19,VALID,0,VALID,104,VALID,0,VALID,23.6745,VALID,315,VALID,0.000390625,
2013-01-27, 01:26:04,VALID,1011.18,VALID,0,VALID,104,VALID,0,VALID,23.6745,VALID,315,VALID,0.130469,
2013-01-27, 01:27:04,VALID,1011.19,VALID,0,VALID,104,VALID,0,VALID,23.6745,VALID,315,VALID,0.0359375,
2013-01-27, 01:28:04,VALID,1011.15,VALID,0,VALID,104,VALID,0,VALID,23.655,VALID,315,VALID,0.00078125,
2013-01-27, 01:29:04,VALID,1011.17,VALID,0,VALID,104,VALID,0,VALID,23.6356,VALID,315,VALID,0.166016,
2013-01-27, 01:30:04,VALID,1011.15,VALID,0,VALID,104,VALID,0,VALID,23.6356,VALID,315,VALID,0.230469,
2013-01-27, 01:31:04,VALID,1011.14,VALID,0,VALID,104,VALID,0,VALID,23.6568,VALID,315,VALID,0.160547,
2013-01-27, 01:32:04,VALID,1011.13,VALID,0,VALID,104,VALID,0,VALID,23.655,VALID,315,VALID,0.457422,
2013-01-27, 01:33:04,VALID,1011.13,VALID,0,VALID,104,VALID,0,VALID,23.6745,VALID,316,VALID,0.179297,
2013-01-27, 01:34:04,VALID,1011.12,VALID,0,VALID,104,VALID,0,VALID,23.6745,VALID,315,VALID,0.328906,
2013-01-27, 01:35:04,VALID,1011.15,VALID,0,VALID,104,VALID,0,VALID,23.655,VALID,315,VALID,0.287891,
2013-01-27, 01:36:04,VALID,1011.13,VALID,0,VALID,104,VALID,0,VALID,23.6356,VALID,315,VALID,0.358203,
2013-01-27, 01:37:04,VALID,1011.11,VALID,0,VALID,104,VALID,0,VALID,23.6161,VALID,315,VALID,0.252344,
2013-01-27, 01:38:04,VALID,1011.11,VALID,0,VALID,104,VALID,0,VALID,23.6373,VALID,315,VALID,0.198437,
2013-01-27, 01:39:04,VALID,1011.11,VALID,0,VALID,104,VALID,0,VALID,23.6161,VALID,315,VALID,0,
2013-01-27, 01:40:04,VALID,1011.12,VALID,0,VALID,104,VALID,0,VALID,23.6161,VALID,315,VALID,0,
2013-01-27, 01:41:04,VALID,1011.05,VALID,0,VALID,104,VALID,0,VALID,23.6373,VALID,315,VALID,0,
2013-01-27, 01:42:04,VALID,1011.05,VALID,0,VALID,104,VALID,0,VALID,23.6373,VALID,315,VALID,0.324219,
2013-01-27, 01:43:04,VALID,1011.07,VALID,0,VALID,104,VALID,0,VALID,23.5966,VALID,315,VALID,0.201953,
2013-01-27, 01:44:04,VALID,1011.03,VALID,0,VALID,104,VALID,0,VALID,23.6161,VALID,315,VALID,0.291016,
2013-01-27, 01:45:04,VALID,1011.03,VALID,0,VALID,104,VALID,0,VALID,23.6568,VALID,315,VALID,0.433203,
2013-01-27, 01:46:04,VALID,1011.01,VALID,0,VALID,104,VALID,0,VALID,23.6356,VALID,315,VALID,0.390625,
2013-01-27, 01:47:04,VALID,1011,VALID,0,VALID,104,VALID,0,VALID,23.6356,VALID,315,VALID,0.347266,
2013-01-27, 01:48:04,VALID,1010.97,VALID,0,VALID,104,VALID,0,VALID,23.6356,VALID,315,VALID,0.295703,
2013-01-27, 01:49:04,VALID,1010.98,VALID,0,VALID,104,VALID,0,VALID,23.6356,VALID,315,VALID,0.271484,
2013-01-27, 01:50:04,VALID,1011,VALID,0,VALID,104,VALID,0,VALID,23.6568,VALID,315,VALID,0.355078,
2013-01-27, 01:51:04,VALID,1010.99,VALID,0,VALID,104,VALID,0,VALID,23.6356,VALID,315,VALID,0.518359,
2013-01-27, 01:52:04,VALID,1011,VALID,0,VALID,104,VALID,0,VALID,23.6763,VALID,315,VALID,0.144531,
2013-01-27, 01:53:04,VALID,1010.99,VALID,0,VALID,104,VALID,0,VALID,23.6356,VALID,315,VALID,0.394531,
2013-01-27, 01:54:04,VALID,1010.99,VALID,0,VALID,104,VALID,0,VALID,23.655,VALID,315,VALID,0.323438,
2013-01-27, 01:55:04,VALID,1010.99,VALID,0,VALID,104,VALID,0,VALID,23.655,VALID,315,VALID,0.255469,
2013-01-27, 01:56:04,VALID,1010.99,VALID,0,VALID,104,VALID,0,VALID,23.655,VALID,315,VALID,0.282031,
2013-01-27, 01:57:04,VALID,1010.96,VALID,0,VALID,104,VALID,0,VALID,23.6356,VALID,315,VALID,0.268359,
2013-01-27, 01:58:04,VALID,1010.98,VALID,0,VALID,104,VALID,0,VALID,23.655,VALID,315,VALID,0.397266,
2013-01-27, 01:59:04,VALID,1010.97,VALID,0,VALID,104,VALID,0,VALID,23.6568,VALID,315,VALID,0.193359,
2013-01-27, 02:00:04,VALID,1010.98,VALID,0,VALID,104,VALID,0,VALID,23.6356,VALID,315,VALID,0.297266,
2013-01-27, 02:01:04,VALID,1011,VALID,0,VALID,104,VALID,0,VALID,23.5966,VALID,315,VALID,0.204297,
2013-01-27, 02:02:04,VALID,1010.98,VALID,0,VALID,104,VALID,0,VALID,23.6161,VALID,315,VALID,0.275391,
2013-01-27, 02:03:04,VALID,1010.98,VALID,0,VALID,104,VALID,0,VALID,23.5966,VALID,315,VALID,0.00898437,
2013-01-27, 02:04:04,VALID,1011.02,VALID,0,VALID,104,VALID,0,VALID,23.6161,VALID,315,VALID,0.303125,
2013-01-27, 02:05:04,VALID,1011,VALID,0,VALID,104,VALID,0,VALID,23.6161,VALID,315,VALID,0,
2013-01-27, 02:06:04,VALID,1011.02,VALID,0,VALID,104,VALID,0,VALID,23.6161,VALID,315,VALID,0.167187,
2013-01-27, 02:07:04,VALID,1011.01,VALID,0,VALID,104,VALID,0,VALID,23.6161,VALID,315,VALID,0.160547,
2013-01-27, 02:08:04,VALID,1011.02,VALID,0,VALID,104,VALID,0,VALID,23.5966,VALID,315,VALID,0.170703,
2013-01-27, 02:09:04,VALID,1011.05,VALID,0,VALID,104,VALID,0,VALID,23.5966,VALID,315,VALID,0.0117188,
2013-01-27, 02:10:04,VALID,1011.01,VALID,0,VALID,104,VALID,0,VALID,23.5966,VALID,315,VALID,0.268359,
2013-01-27, 02:11:04,VALID,1011.03,VALID,0,VALID,104,VALID,0,VALID,23.5966,VALID,315,VALID,0.367578,
2013-01-27, 02:12:04,VALID,1011.01,VALID,0,VALID,104,VALID,0,VALID,23.6161,VALID,315,VALID,0.385938,
2013-01-27, 02:13:04,VALID,1011.01,VALID,0,VALID,104,VALID,0,VALID,23.6161,VALID,315,VALID,0.229687,
2013-01-27, 02:14:04,VALID,1010.99,VALID,0,VALID,104,VALID,0,VALID,23.5771,VALID,315,VALID,0.332812,
2013-01-27, 02:15:04,VALID,1011,VALID,0,VALID,104,VALID,0,VALID,23.5771,VALID,315,VALID,0.163281,
2013-01-27, 02:16:04,VALID,1011.01,VALID,0,VALID,104,VALID,0,VALID,23.5771,VALID,315,VALID,0.115234,
2013-01-27, 02:17:04,VALID,1010.99,VALID,0,VALID,104,VALID,0,VALID,23.5576,VALID,315,VALID,0.190625,
2013-01-27, 02:18:04,VALID,1011,VALID,0,VALID,104,VALID,0.112112,VALID,23.5576,VALID,315,VALID,0,
2013-01-27, 02:19:04,VALID,1011.01,VALID,0,VALID,104,VALID,0,VALID,23.5576,VALID,315,VALID,0,
2013-01-27, 02:20:04,VALID,1011,VALID,0,VALID,104,VALID,0,VALID,23.5169,VALID,315,VALID,0.0488281,
2013-01-27, 02:21:04,VALID,1010.98,VALID,0,VALID,104,VALID,0,VALID,23.5381,VALID,315,VALID,0.506641,
2013-01-27, 02:22:04,VALID,1010.98,VALID,0,VALID,104,VALID,0,VALID,23.5576,VALID,315,VALID,0.218359,
2013-01-27, 02:23:04,VALID,1010.96,VALID,0,VALID,104,VALID,0,VALID,23.5771,VALID,315,VALID,0,
2013-01-27, 02:24:04,VALID,1010.97,VALID,0,VALID,104,VALID,0,VALID,23.5771,VALID,315,VALID,0.476953,
2013-01-27, 02:25:04,VALID,1010.98,VALID,0,VALID,104,VALID,0,VALID,23.5966,VALID,17,VALID,0.430078,
2013-01-27, 02:26:04,VALID,1010.94,VALID,0,VALID,104,VALID,0.112112,VALID,23.5966,VALID,17,VALID,0.296875,
2013-01-27, 02:27:04,VALID,1010.92,VALID,0,VALID,104,VALID,0,VALID,23.5771,VALID,17,VALID,0.322656,
2013-01-27, 02:28:04,VALID,1010.92,VALID,0,VALID,104,VALID,0,VALID,23.5576,VALID,17,VALID,0.282422,
2013-01-27, 02:29:04,VALID,1010.93,VALID,0,VALID,104,VALID,0,VALID,23.5576,VALID,17,VALID,0.354297,
2013-01-27, 02:30:04,VALID,1010.92,VALID,0,VALID,104,VALID,0,VALID,23.5169,VALID,17,VALID,0.330469,
2013-01-27, 02:31:04,VALID,1010.92,VALID,0,VALID,104,VALID,0,VALID,23.5186,VALID,17,VALID,0.296484,
2013-01-27, 02:32:04,VALID,1010.9,VALID,0,VALID,104,VALID,0,VALID,23.4992,VALID,17,VALID,0.252344,
2013-01-27, 02:33:04,VALID,1010.91,VALID,0,VALID,104,VALID,0,VALID,23.4992,VALID,17,VALID,0.0765625,
2013-01-27, 02:34:04,VALID,1010.9,VALID,0,VALID,104,VALID,0,VALID,23.4992,VALID,17,VALID,0,
2013-01-27, 02:35:04,VALID,1010.87,VALID,0,VALID,104,VALID,0,VALID,23.4797,VALID,17,VALID,0,
2013-01-27, 02:36:04,VALID,1010.89,VALID,0,VALID,104,VALID,0,VALID,23.4602,VALID,17,VALID,0.0128906,
2013-01-27, 02:37:04,VALID,1010.86,VALID,0,VALID,104,VALID,0,VALID,23.4797,VALID,17,VALID,0.0699219,
2013-01-27, 02:38:04,VALID,1010.87,VALID,0,VALID,104,VALID,0,VALID,23.4797,VALID,17,VALID,0.366016,
2013-01-27, 02:39:04,VALID,1010.88,VALID,0,VALID,104,VALID,0,VALID,23.4389,VALID,17,VALID,0.285547,
2013-01-27, 02:40:04,VALID,1010.85,VALID,0,VALID,104,VALID,0,VALID,23.4602,VALID,17,VALID,0.214844,
2013-01-27, 02:41:04,VALID,1010.85,VALID,0,VALID,104,VALID,0,VALID,23.4797,VALID,17,VALID,0.332812,
2013-01-27, 02:42:04,VALID,1010.81,VALID,0,VALID,104,VALID,0,VALID,23.4389,VALID,17,VALID,0.287891,
2013-01-27, 02:43:04,VALID,1010.81,VALID,0,VALID,104,VALID,0,VALID,23.4407,VALID,17,VALID,0.214062,
2013-01-27, 02:44:04,VALID,1010.82,VALID,0,VALID,104,VALID,0,VALID,23.4212,VALID,17,VALID,0.225,
2013-01-27, 02:45:04,VALID,1010.78,VALID,0,VALID,104,VALID,0,VALID,23.361,VALID,17,VALID,0.360156,
2013-01-27, 02:46:04,VALID,1010.79,VALID,0,VALID,104,VALID,0,VALID,23.3433,VALID,17,VALID,0.344922,
2013-01-27, 02:47:04,VALID,1010.75,VALID,0,VALID,104,VALID,0,VALID,23.3433,VALID,17,VALID,0.160156,
2013-01-27, 02:48:04,VALID,1010.74,VALID,0,VALID,104,VALID,0,VALID,23.322,VALID,17,VALID,0.421484,
2013-01-27, 02:49:04,VALID,1010.72,VALID,0,VALID,104,VALID,0,VALID,23.3238,VALID,17,VALID,0.293359,
2013-01-27, 02:50:04,VALID,1010.71,VALID,0,VALID,104,VALID,0,VALID,23.3026,VALID,17,VALID,0.260938,
2013-01-27, 02:51:04,VALID,1010.72,VALID,0,VALID,104,VALID,0,VALID,23.3026,VALID,17,VALID,0.366016,
2013-01-27, 02:52:04,VALID,1010.7,VALID,0,VALID,104,VALID,0,VALID,23.3238,VALID,17,VALID,0.368359,
2013-01-27, 02:53:04,VALID,1010.7,VALID,0,VALID,104,VALID,0,VALID,23.3043,VALID,17,VALID,0.228125,
2013-01-27, 02:54:04,VALID,1010.69,VALID,0,VALID,104,VALID,0,VALID,23.2848,VALID,17,VALID,0.168359,
2013-01-27, 02:55:04,VALID,1010.72,VALID,0,VALID,104,VALID,0,VALID,23.2848,VALID,17,VALID,0.00585938,
2013-01-27, 02:56:04,VALID,1010.71,VALID,0,VALID,104,VALID,0,VALID,23.2654,VALID,17,VALID,0.4,
2013-01-27, 02:57:04,VALID,1010.7,VALID,0,VALID,104,VALID,0,VALID,23.2848,VALID,17,VALID,0.0753906,
2013-01-27, 02:58:04,VALID,1010.69,VALID,0,VALID,104,VALID,0,VALID,23.2848,VALID,17,VALID,0.220703,
2013-01-27, 02:59:04,VALID,1010.69,VALID,0,VALID,104,VALID,0.112112,VALID,23.2848,VALID,17,VALID,0.35,
2013-01-27, 03:00:04,VALID,1010.68,VALID,0,VALID,104,VALID,0,VALID,23.2654,VALID,17,VALID,0.223438,
2013-01-27, 03:01:04,VALID,1010.66,VALID,0,VALID,104,VALID,0,VALID,23.2654,VALID,17,VALID,0.185547,
2013-01-27, 03:02:04,VALID,1010.64,VALID,0,VALID,104,VALID,0,VALID,23.2246,VALID,17,VALID,0.197656,
2013-01-27, 03:03:04,VALID,1010.63,VALID,0,VALID,104,VALID,0,VALID,23.2459,VALID,17,VALID,0.170703,
2013-01-27, 03:04:04,VALID,1010.64,VALID,0,VALID,104,VALID,0,VALID,23.2264,VALID,17,VALID,0.221875,
2013-01-27, 03:05:04,VALID,1010.65,VALID,0,VALID,104,VALID,0,VALID,23.1857,VALID,17,VALID,0.303516,
2013-01-27, 03:06:04,VALID,1010.63,VALID,0,VALID,104,VALID,0,VALID,23.1857,VALID,17,VALID,0.247656,
2013-01-27, 03:07:04,VALID,1010.6,VALID,0,VALID,104,VALID,0,VALID,23.1874,VALID,17,VALID,0.230859,
2013-01-27, 03:08:04,VALID,1010.63,VALID,0,VALID,104,VALID,0,VALID,23.1679,VALID,17,VALID,0.187109,
2013-01-27, 03:09:04,VALID,1010.64,VALID,0,VALID,104,VALID,0,VALID,23.1679,VALID,17,VALID,0,
2013-01-27, 03:10:04,VALID,1010.62,VALID,0,VALID,104,VALID,0,VALID,23.129,VALID,17,VALID,0,
2013-01-27, 03:11:04,VALID,1010.64,VALID,0,VALID,104,VALID,0,VALID,23.129,VALID,17,VALID,0.173828,
2013-01-27, 03:12:04,VALID,1010.64,VALID,0,VALID,104,VALID,0.112112,VALID,23.0883,VALID,17,VALID,0.0523437,
2013-01-27, 03:13:04,VALID,1010.64,VALID,0,VALID,104,VALID,0,VALID,23.129,VALID,17,VALID,0,
2013-01-27, 03:14:04,VALID,1010.62,VALID,0,VALID,104,VALID,0,VALID,23.1095,VALID,17,VALID,0,
2013-01-27, 03:15:04,VALID,1010.64,VALID,0,VALID,104,VALID,0,VALID,23.09,VALID,17,VALID,0,
2013-01-27, 03:16:04,VALID,1010.6,VALID,0,VALID,104,VALID,0,VALID,23.09,VALID,17,VALID,0,
2013-01-27, 03:17:04,VALID,1010.64,VALID,0,VALID,104,VALID,0,VALID,23.09,VALID,17,VALID,0,
2013-01-27, 03:18:04,VALID,1010.61,VALID,0,VALID,104,VALID,0,VALID,23.0705,VALID,17,VALID,0,
2013-01-27, 03:19:04,VALID,1010.62,VALID,0,VALID,104,VALID,0,VALID,23.0511,VALID,17,VALID,0.034375,
2013-01-27, 03:20:04,VALID,1010.63,VALID,0,VALID,104,VALID,0,VALID,23.0103,VALID,17,VALID,0,
2013-01-27, 03:21:04,VALID,1010.61,VALID,0,VALID,104,VALID,0.112112,VALID,23.0316,VALID,17,VALID,0,
2013-01-27, 03:22:04,VALID,1010.64,VALID,0,VALID,104,VALID,0,VALID,23.0121,VALID,17,VALID,0,
2013-01-27, 03:23:04,VALID,1010.63,VALID,0,VALID,104,VALID,0,VALID,23.0121,VALID,17,VALID,0,
2013-01-27, 03:24:04,VALID,1010.62,VALID,0,VALID,104,VALID,0,VALID,23.0121,VALID,17,VALID,0,
2013-01-27, 03:25:04,VALID,1010.6,VALID,0,VALID,104,VALID,0.112112,VALID,23.0103,VALID,17,VALID,0,
2013-01-27, 03:26:04,VALID,1010.64,VALID,0,VALID,104,VALID,0.112112,VALID,23.0298,VALID,17,VALID,0,
2013-01-27, 03:27:04,VALID,1010.63,VALID,0,VALID,104,VALID,0,VALID,23.0298,VALID,17,VALID,0,
2013-01-27, 03:28:04,VALID,1010.65,VALID,0,VALID,104,VALID,0,VALID,23.0511,VALID,17,VALID,0,
2013-01-27, 03:29:04,VALID,1010.64,VALID,0,VALID,104,VALID,0,VALID,23.0511,VALID,17,VALID,0,
2013-01-27, 03:30:04,VALID,1010.65,VALID,0,VALID,104,VALID,0,VALID,23.0493,VALID,17,VALID,0,
2013-01-27, 03:31:04,VALID,1010.68,VALID,0,VALID,104,VALID,0,VALID,23.0511,VALID,17,VALID,0,
2013-01-27, 03:32:04,VALID,1010.69,VALID,0,VALID,104,VALID,0,VALID,23.0511,VALID,17,VALID,0,
2013-01-27, 03:33:04,VALID,1010.72,VALID,0,VALID,104,VALID,0,VALID,23.0511,VALID,17,VALID,0,
2013-01-27, 03:34:04,VALID,1010.71,VALID,0,VALID,104,VALID,0.112112,VALID,23.0298,VALID,17,VALID,0,
2013-01-27, 03:35:04,VALID,1010.72,VALID,0,VALID,104,VALID,0.112112,VALID,23.0298,VALID,17,VALID,0,
2013-01-27, 03:36:04,VALID,1010.73,VALID,0,VALID,104,VALID,0,VALID,23.0511,VALID,17,VALID,0,
2013-01-27, 03:37:04,VALID,1010.7,VALID,0,VALID,104,VALID,0,VALID,22.9909,VALID,17,VALID,0,
2013-01-27, 03:38:04,VALID,1010.72,VALID,0,VALID,104,VALID,0,VALID,23.0121,VALID,17,VALID,0,
2013-01-27, 03:39:04,VALID,1010.71,VALID,0,VALID,104,VALID,0,VALID,23.0316,VALID,17,VALID,0,
2013-01-27, 03:40:04,VALID,1010.7,VALID,0,VALID,104,VALID,0,VALID,23.0298,VALID,17,VALID,0,
2013-01-27, 03:41:04,VALID,1010.71,VALID,0,VALID,104,VALID,0,VALID,23.0103,VALID,17,VALID,0,
2013-01-27, 03:42:04,VALID,1010.73,VALID,0,VALID,104,VALID,0,VALID,23.0121,VALID,17,VALID,0,
2013-01-27, 03:43:04,VALID,1010.72,VALID,0,VALID,104,VALID,0,VALID,23.0316,VALID,17,VALID,0,
2013-01-27, 03:44:04,VALID,1010.75,VALID,0,VALID,104,VALID,0,VALID,22.9909,VALID,17,VALID,0,
2013-01-27, 03:45:04,VALID,1010.74,VALID,0,VALID,104,VALID,0.112112,VALID,22.9714,VALID,17,VALID,0,
2013-01-27, 03:46:04,VALID,1010.74,VALID,0,VALID,104,VALID,0.112112,VALID,22.9536,VALID,17,VALID,0,
2013-01-27, 03:47:04,VALID,1010.71,VALID,0,VALID,104,VALID,0,VALID,22.9536,VALID,17,VALID,0,
2013-01-27, 03:48:04,VALID,1010.71,VALID,0,VALID,104,VALID,0,VALID,22.9324,VALID,17,VALID,0,
2013-01-27, 03:49:04,VALID,1010.73,VALID,0,VALID,104,VALID,0,VALID,22.9342,VALID,17,VALID,0,
2013-01-27, 03:50:04,VALID,1010.71,VALID,0,VALID,104,VALID,0,VALID,22.9342,VALID,17,VALID,0,
2013-01-27, 03:51:04,VALID,1010.7,VALID,0,VALID,104,VALID,0,VALID,22.9342,VALID,17,VALID,0,
2013-01-27, 03:52:04,VALID,1010.71,VALID,0,VALID,104,VALID,0,VALID,22.9129,VALID,17,VALID,0,
2013-01-27, 03:53:04,VALID,1010.75,VALID,0,VALID,104,VALID,0,VALID,22.9342,VALID,17,VALID,0,
2013-01-27, 03:54:04,VALID,1010.75,VALID,0,VALID,104,VALID,0,VALID,22.8935,VALID,17,VALID,0,
2013-01-27, 03:55:04,VALID,1010.75,VALID,0,VALID,104,VALID,0,VALID,22.8952,VALID,17,VALID,0,